Back to catalog

FENGYUN 1C DEB

AliveSSO
NORAD 31422·DEBRIS·🇨🇳 China

Launched May 10, 1999 from Taiyuan Satellite Launch Center

Loading…

Next Passes (next 24 hours)

TLE

AgingSource: Space-Track

Epoch: Sep 6, 2026, 11:45 UTC

1 31422U 99025BTJ 26249.49000569  .00000213  00000-0  14481-3 0  9990
2 31422  98.7734 244.5306 0033098 262.6976 248.6994 14.09917649994348

Track FENGYUN 1C DEB in real time with AllMySat

Download on the App Store